sat.trackr.live / text

‹ back to catalog

STARLINK-35448

NORAD 66465 · 2025-262K

PAYLOAD ACTIVE UNKNOWN

§ Identity

Operator
Country
US
Launch date
2025-11-15
Launch site
AFETR
Launch vehicle
Mass (kg)
RCS (m²)

Purposes: comms

External: N2YO · Heavens-Above · Gunter

§ Orbital elements

Epoch: 2026-09-20T08:14:41.418816Z

Period
94.27 min
Inclination
43.0009°
Eccentricity
0.0001018
Mean motion
15.27605341 rev/d
Perigee alt
482.3 km
Apogee alt
483.7 km
Semi-major
6,861.1 km
B*
5.4120e-4
RAAN
277.0879°
Arg perigee
277.6193°
Mean anomaly
82.4543°
Rev number
4,867

§ Raw data

STARLINK-354481 66465U 25262K   26263.34353494  .00014672  00000+0  54120-3 0  99922 66465  43.0009 277.0879 0001018 277.6193  82.4543 15.27605341 48675

JSON: /api/v1/satellites/66465 · /tle

For live sub-satellite position, see the globe view (requires WebGL).

§ Visibility from observer

Set your observer location to see the next 7 days of passes ≥ 10°. The values pass through the URL so the page stays shareable.

No JS? Fill the form by hand. The geolocation button needs JavaScript.